| time (UTC) | temp C | wind direction | speed KPH | gust KPH | rain 1hr cm | rain 24hr cm | rain mn cm | humidity % | barometer mb |
| 20260505203516 | 15 | 68 | 1.6 | 8.0 | 0.00 | 0.00 | 0.00 | 67 | 1015.6 |
| 20260505202537 | 15 | 254 | 1.6 | 4.8 | 0.00 | 0.00 | 0.00 | 68 | 1015.6 |
| 20260505201515 | 15 | 0.0 | 6.4 | 0.00 | 0.00 | 0.00 | 68 | 1015.6 | |
| 20260505200516 | 15 | 312 | 1.6 | 6.4 | 0.00 | 0.00 | 0.00 | 67 | 1015.7 |
| 20260505195535 | 15 | 291 | 3.2 | 6.4 | 0.00 | 0.00 | 0.00 | 68 | 1015.8 |
| 20260505194516 | 15 | 311 | 1.6 | 8.0 | 0.00 | 0.00 | 0.00 | 68 | 1016.0 |
| 20260505193515 | 15 | 17 | 3.2 | 9.7 | 0.00 | 0.00 | 0.00 | 69 | 1016.0 |
| 20260505192536 | 15 | 33 | 1.6 | 8.0 | 0.00 | 0.00 | 0.00 | 70 | 1016.0 |
| 20260505191516 | 15 | 329 | 1.6 | 6.4 | 0.00 | 0.00 | 0.00 | 70 | 1016.0 |
| 20260505190515 | 15 | 282 | 3.2 | 9.7 | 0.00 | 0.00 | 0.00 | 70 | 1015.9 |
| 20260505185516 | 14 | 52 | 4.8 | 12.9 | 0.00 | 0.00 | 0.00 | 70 | 1015.8 |
| 20260505184536 | 14 | 320 | 1.6 | 11.3 | 0.00 | 0.00 | 0.00 | 68 | 1015.8 |
| 20260505183516 | 14 | 292 | 1.6 | 8.0 | 0.00 | 0.00 | 0.00 | 69 | 1015.8 |
| 20260505182515 | 14 | 317 | 1.6 | 8.0 | 0.00 | 0.00 | 0.00 | 68 | 1015.8 |
| 20260505181536 | 14 | 302 | 1.6 | 6.4 | 0.00 | 0.00 | 0.00 | 68 | 1015.8 |
| 20260505180515 | 13 | 27 | 1.6 | 4.8 | 0.00 | 0.00 | 0.00 | 69 | 1015.7 |
| 20260505175515 | 14 | 331 | 1.6 | 6.4 | 0.00 | 0.00 | 0.00 | 68 | 1015.7 |
| 20260505174515 | 14 | 280 | 1.6 | 6.4 | 0.00 | 0.00 | 0.00 | 68 | 1015.4 |
| 20260505173517 | 13 | 0.0 | 1.6 | 0.00 | 0.00 | 0.00 | 69 | 1015.4 | |
| 20260505172515 | 13 | 45 | 0.0 | 4.8 | 0.00 | 0.00 | 0.00 | 69 | 1015.4 |
| 20260505171516 | 13 | 84 | 1.6 | 4.8 | 0.00 | 0.00 | 0.00 | 69 | 1015.4 |
| 20260505170516 | 13 | 30 | 0.0 | 4.8 | 0.00 | 0.00 | 0.00 | 69 | 1015.4 |
| 20260505165515 | 13 | 30 | 0.0 | 4.8 | 0.00 | 0.00 | 0.00 | 70 | 1015.4 |
| 20260505164517 | 13 | 355 | 0.0 | 4.8 | 0.00 | 0.00 | 0.00 | 70 | 1015.3 |
| 20260505163515 | 13 | 355 | 0.0 | 3.2 | 0.00 | 0.00 | 0.00 | 71 | 1015.2 |
| 20260505162515 | 13 | 294 | 1.6 | 6.4 | 0.00 | 0.00 | 0.00 | 71 | 1015.1 |
| 20260505161536 | 13 | 253 | 0.0 | 3.2 | 0.00 | 0.00 | 0.00 | 71 | 1015.1 |
| 20260505160515 | 12 | 0.0 | 3.2 | 0.00 | 0.00 | 0.00 | 72 | 1015.1 | |
| 20260505152515 | 12 | 0.0 | 1.6 | 0.00 | 0.00 | 0.00 | 73 | 1014.8 | |
| 20260505151555 | 12 | 0.0 | 0.0 | 0.00 | 0.00 | 0.00 | 74 | 1014.8 | |
| 20260505150535 | 12 | 0.0 | 1.6 | 0.00 | 0.00 | 0.00 | 74 | 1014.8 | |
| 20260505140515 | 11 | 287 | 0.0 | 4.8 | 0.00 | 0.00 | 0.00 | 76 | 1014.4 |
| 20260505124515 | 11 | 0.0 | 0.0 | 0.00 | 0.00 | 0.00 | 74 | 1014.2 | |
| 20260505123516 | 11 | 0.0 | 0.0 | 0.00 | 0.00 | 0.00 | 74 | 1014.3 | |
| 20260505122515 | 11 | 0.0 | 3.2 | 0.00 | 0.00 | 0.00 | 73 | 1014.3 | |
| 20260505121515 | 11 | 0.0 | 0.0 | 0.00 | 0.00 | 0.00 | 74 | 1014.5 | |
| 20260505120515 | 11 | 0.0 | 0.0 | 0.00 | 0.00 | 0.00 | 73 | 1014.5 | |
| 20260505115555 | 11 | 0.0 | 3.2 | 0.00 | 0.00 | 0.00 | 73 | 1014.5 | |
| 20260505114515 | 11 | 0.0 | 0.0 | 0.00 | 0.00 | 0.00 | 72 | 1014.5 | |
| 20260505113515 | 11 | 0.0 | 0.0 | 0.00 | 0.00 | 0.00 | 72 | 1014.5 | |
| 20260505112556 | 11 | 0.0 | 0.0 | 0.00 | 0.00 | 0.00 | 71 | 1014.4 | |
| 20260505111516 | 11 | 0.0 | 0.0 | 0.00 | 0.00 | 0.00 | 71 | 1014.4 | |
| 20260505110517 | 11 | 0.0 | 0.0 | 0.00 | 0.00 | 0.00 | 71 | 1014.4 | |
| 20260505101516 | 12 | 257 | 1.6 | 6.4 | 0.00 | 0.00 | 0.00 | 71 | 1014.4 |
| 20260505100515 | 12 | 264 | 0.0 | 1.6 | 0.00 | 0.00 | 0.00 | 71 | 1014.5 |
| 20260505095515 | 12 | 0.0 | 0.0 | 0.00 | 0.00 | 0.00 | 70 | 1014.4 | |
| 20260505094515 | 12 | 263 | 0.0 | 3.2 | 0.00 | 0.00 | 0.00 | 69 | 1014.5 |
| 20260505093515 | 12 | 273 | 0.0 | 4.8 | 0.00 | 0.00 | 0.00 | 69 | 1014.6 |
| 20260505092516 | 12 | 259 | 0.0 | 4.8 | 0.00 | 0.00 | 0.00 | 68 | 1014.5 |
| 20260505091515 | 12 | 250 | 1.6 | 6.4 | 0.00 | 0.00 | 0.00 | 68 | 1014.7 |
| 20260505090515 | 12 | 308 | 0.0 | 9.7 | 0.00 | 0.00 | 0.00 | 69 | 1014.9 |
| 20260505085515 | 12 | 295 | 1.6 | 4.8 | 0.00 | 0.00 | 0.00 | 69 | 1015.0 |
| 20260505084515 | 12 | 272 | 1.6 | 9.7 | 0.00 | 0.00 | 0.00 | 69 | 1015.1 |
| 20260505083515 | 12 | 272 | 1.6 | 6.4 | 0.00 | 0.00 | 0.00 | 70 | 1015.1 |
| 20260505082516 | 12 | 296 | 1.6 | 9.7 | 0.00 | 0.00 | 0.00 | 71 | 1015.0 |
| 20260505081516 | 12 | 293 | 3.2 | 8.0 | 0.00 | 0.00 | 0.00 | 73 | 1015.0 |
| 20260505080515 | 12 | 267 | 1.6 | 8.0 | 0.00 | 0.00 | 0.00 | 76 | 1015.1 |
| 20260505075515 | 12 | 260 | 1.6 | 6.4 | 0.00 | 0.00 | 0.00 | 78 | 1015.2 |
| 20260505074516 | 12 | 244 | 1.6 | 6.4 | 0.00 | 0.00 | 0.00 | 77 | 1015.1 |
| 20260505073514 | 12 | 294 | 0.0 | 1.6 | 0.00 | 0.00 | 0.00 | 77 | 1015.1 |
| 20260505072515 | 12 | 0.0 | 0.0 | 0.00 | 0.00 | 0.00 | 76 | 1015.0 | |
| 20260505071514 | 12 | 0.0 | 0.0 | 0.00 | 0.00 | 0.00 | 76 | 1014.9 | |
| 20260505070535 | 12 | 296 | 0.0 | 4.8 | 0.00 | 0.00 | 0.00 | 76 | 1014.7 |
| 20260505065536 | 12 | 300 | 0.0 | 3.2 | 0.00 | 0.00 | 0.00 | 76 | 1014.8 |
| 20260505064517 | 12 | 0.0 | 0.0 | 0.00 | 0.00 | 0.00 | 76 | 1014.8 | |
| 20260505063537 | 12 | 0.0 | 0.0 | 0.00 | 0.00 | 0.00 | 76 | 1014.8 | |
| 20260505062516 | 12 | 0.0 | 0.0 | 0.00 | 0.00 | 0.00 | 75 | 1014.7 | |
| 20260505061516 | 13 | 0.0 | 0.0 | 0.00 | 0.00 | 0.00 | 74 | 1014.6 | |
| 20260505060517 | 13 | 0.0 | 0.0 | 0.00 | 0.00 | 0.00 | 73 | 1014.6 | |
| 20260505055516 | 13 | 0.0 | 3.2 | 0.00 | 0.00 | 0.00 | 74 | 1014.7 | |
| 20260505054516 | 13 | 317 | 1.6 | 4.8 | 0.00 | 0.00 | 0.00 | 73 | 1014.9 |
| 20260505053516 | 13 | 294 | 1.6 | 12.9 | 0.00 | 0.00 | 0.00 | 73 | 1015.1 |
| 20260505052516 | 13 | 318 | 1.6 | 9.7 | 0.00 | 0.00 | 0.00 | 72 | 1015.2 |
| 20260505051516 | 13 | 305 | 0.0 | 12.9 | 0.00 | 0.00 | 0.00 | 72 | 1015.2 |
| 20260505050516 | 13 | 307 | 3.2 | 11.3 | 0.00 | 0.00 | 0.00 | 71 | 1015.1 |
| 20260505041516 | 14 | 307 | 3.2 | 9.7 | 0.00 | 0.00 | 0.00 | 69 | 1014.5 |
| 20260505040516 | 14 | 291 | 1.6 | 8.0 | 0.00 | 0.00 | 0.00 | 70 | 1014.5 |
| 20260505035517 | 15 | 283 | 1.6 | 6.4 | 0.00 | 0.00 | 0.00 | 68 | 1014.3 |
| 20260505034557 | 15 | 332 | 0.0 | 6.4 | 0.00 | 0.00 | 0.00 | 67 | 1014.1 |
| 20260505033515 | 15 | 303 | 0.0 | 6.4 | 0.00 | 0.00 | 0.00 | 66 | 1013.9 |
| 20260505032516 | 15 | 303 | 1.6 | 6.4 | 0.00 | 0.00 | 0.00 | 67 | 1013.8 |
| 20260505031516 | 15 | 305 | 1.6 | 6.4 | 0.00 | 0.00 | 0.00 | 67 | 1013.7 |
| 20260505030516 | 15 | 270 | 1.6 | 11.3 | 0.00 | 0.00 | 0.00 | 67 | 1013.9 |
| 20260505025557 | 15 | 302 | 3.2 | 11.3 | 0.00 | 0.00 | 0.00 | 66 | 1013.9 |
| 20260505024557 | 15 | 288 | 1.6 | 11.3 | 0.00 | 0.00 | 0.00 | 65 | 1013.9 |
| 20260505023516 | 15 | 307 | 3.2 | 11.3 | 0.00 | 0.00 | 0.00 | 64 | 1013.8 |
| 20260505022536 | 15 | 310 | 3.2 | 8.0 | 0.00 | 0.00 | 0.00 | 63 | 1013.7 |
| 20260505021515 | 15 | 322 | 1.6 | 8.0 | 0.00 | 0.00 | 0.00 | 62 | 1013.6 |
| 20260505020536 | 16 | 328 | 1.6 | 12.9 | 0.00 | 0.00 | 0.00 | 61 | 1013.6 |
| 20260505015516 | 16 | 298 | 1.6 | 8.0 | 0.00 | 0.00 | 0.00 | 60 | 1013.5 |
| 20260505014516 | 16 | 321 | 1.6 | 8.0 | 0.00 | 0.00 | 0.00 | 60 | 1013.5 |
| 20260505013516 | 16 | 317 | 3.2 | 9.7 | 0.00 | 0.00 | 0.00 | 61 | 1013.6 |
| 20260505012515 | 16 | 333 | 1.6 | 9.7 | 0.00 | 0.00 | 0.00 | 62 | 1013.7 |
| 20260505011517 | 16 | 307 | 1.6 | 9.7 | 0.00 | 0.00 | 0.00 | 62 | 1013.9 |
| 20260505010515 | 16 | 304 | 1.6 | 6.4 | 0.00 | 0.00 | 0.00 | 62 | 1013.9 |
| 20260505005515 | 16 | 284 | 1.6 | 11.3 | 0.00 | 0.00 | 0.00 | 62 | 1014.0 |
| 20260505004516 | 16 | 289 | 1.6 | 8.0 | 0.00 | 0.00 | 0.00 | 61 | 1014.0 |
| 20260505003537 | 16 | 296 | 3.2 | 12.9 | 0.00 | 0.00 | 0.00 | 61 | 1014.0 |
| 20260505002517 | 17 | 322 | 3.2 | 16.1 | 0.00 | 0.00 | 0.00 | 60 | 1014.0 |
| 20260505001515 | 17 | 296 | 1.6 | 14.5 | 0.00 | 0.00 | 0.00 | 59 | 1013.9 |
| 20260505000515 | 17 | 321 | 4.8 | 14.5 | 0.00 | 0.00 | 0.00 | 59 | 1013.9 |
| 20260504235535 | 17 | 301 | 4.8 | 16.1 | 0.00 | 0.00 | 0.00 | 59 | 1013.7 |
| 20260504234536 | 17 | 301 | 4.8 | 16.1 | 0.00 | 0.00 | 0.00 | 59 | 1013.6 |
| 20260504233517 | 17 | 298 | 4.8 | 17.7 | 0.00 | 0.00 | 0.00 | 59 | 1013.7 |
| 20260504232516 | 17 | 310 | 3.2 | 12.9 | 0.00 | 0.00 | 0.00 | 59 | 1013.8 |
| 20260504231515 | 17 | 318 | 1.6 | 6.4 | 0.00 | 0.00 | 0.00 | 59 | 1013.8 |
| 20260504230516 | 17 | 300 | 0.0 | 3.2 | 0.00 | 0.00 | 0.00 | 59 | 1013.8 |
| 20260504225515 | 17 | 228 | 1.6 | 6.4 | 0.00 | 0.00 | 0.00 | 58 | 1013.8 |
| 20260504224516 | 17 | 241 | 1.6 | 8.0 | 0.00 | 0.00 | 0.00 | 58 | 1013.8 |
| 20260504223516 | 17 | 229 | 1.6 | 14.5 | 0.00 | 0.00 | 0.00 | 58 | 1013.8 |
| 20260504222515 | 17 | 253 | 1.6 | 8.0 | 0.00 | 0.00 | 0.00 | 59 | 1013.9 |
| 20260504221536 | 17 | 257 | 3.2 | 11.3 | 0.00 | 0.00 | 0.00 | 59 | 1014.0 |
| 20260504220516 | 17 | 305 | 4.8 | 12.9 | 0.00 | 0.00 | 0.00 | 58 | 1014.0 |
| 20260504215515 | 17 | 306 | 3.2 | 12.9 | 0.00 | 0.00 | 0.00 | 57 | 1014.1 |
| 20260504214516 | 18 | 318 | 1.6 | 11.3 | 0.00 | 0.00 | 0.00 | 56 | 1014.1 |
| 20260504213515 | 17 | 320 | 1.6 | 8.0 | 0.00 | 0.00 | 0.00 | 55 | 1014.2 |
| 20260504212536 | 17 | 324 | 3.2 | 12.9 | 0.00 | 0.00 | 0.00 | 56 | 1014.2 |
| 20260504211515 | 17 | 266 | 3.2 | 8.0 | 0.00 | 0.00 | 0.00 | 55 | 1014.2 |
| 20260504210535 | 18 | 351 | 4.8 | 14.5 | 0.00 | 0.00 | 0.00 | 54 | 1014.2 |
| 20260504205515 | 18 | 279 | 3.2 | 11.3 | 0.00 | 0.00 | 0.00 | 53 | 1014.3 |
| 20260504204515 | 18 | 314 | 3.2 | 14.5 | 0.00 | 0.00 | 0.00 | 52 | 1014.3 |